Location: Berrie
(47.0673°N, 0.0691°W)
Time: 11:35:31
(UTC+00:00)

Daily predictions for brighter satellites

Satellite Brightness Start Highest point End
(mag) Time Altitude Azimuth Time Altitude Azimuth Time Altitude Azimuth
Nadezhda 4 Rocket 4.1 16:35:31 10° N 16:41:50 65° E 16:48:06 10° SSE
ATLAS 2AS CENTAUR R/B 4.2 16:35:46 10° WNW 16:42:13 28° NNW 16:48:27 10° NE
Cosmos 990 Rocket 4.0 16:38:37 10° NNW 16:43:49 67° ENE 16:48:57 10° SSE
Cosmos 1697 Rocket 2.8 16:40:32 10° NNW 16:46:02 52° ENE 16:51:30 10° SE
FengYun 1-2 T 4.4 16:40:53 10° SE 16:46:19 55° ENE 16:51:43 10° N
Cosmos 1271 Rocket 4.1 16:43:29 10° SW 16:47:14 41° WNW 16:51:03 10° N
Sich 1 4.0 16:45:56 10° NNE 16:49:35 26° ENE 16:53:13 10° SE
NOAA 6 4.3 16:44:50 10° SE 16:49:43 46° ENE 16:54:37 10° N
Cosmos 1980 Rocket 2.9 16:45:03 10° NNW 16:50:10 33° NE 16:55:13 10° ESE
Cosmos 2221 2.6 16:47:07 10° S 16:51:23 85° W 16:55:44 10° N
Cosmos 1805 Rocket 4.2 16:47:40 10° N 16:51:39 34° ENE 16:55:36 10° SE
Cosmos 2369 4.1 16:46:46 10° NNW 16:52:12 41° NE 16:57:35 10° SE
CZ-4C R/B 3.3 16:49:41 10° NNW 16:56:10 41° NE 17:03:47 10° ESE
Cosmos 1842 Rocket 3.7 16:51:48 10° S 16:56:16 88° W 17:00:47 10° N
USA 234 3.3 16:49:53 10° ESE 16:56:24 73° NNE 17:02:55 10° NW
Cosmos 1092 Rocket 4.2 16:51:29 10° N 16:57:42 52° ENE 17:03:50 10° SSE
Cosmos 2084 3.6 16:53:54 10° NW 16:58:12 84° SW 17:02:41 10° SE
NOSS 3-1 (A) 4.2 16:51:06 10° NW 16:58:35 88° NE 17:07:23 10° SE
USA 306 3.9 16:56:05 10° WNW 16:59:56 32° N 17:03:35 11° ENE
Cosmos 1812 4.4 16:58:08 10° ESE 17:00:25 15° E 17:02:43 10° NE
SL-16 R/B 3.7 16:57:37 10° N 17:01:01 16° NE 17:04:16 10° ENE
ISS -3.4 16:58:16 10° WNW 17:01:36 50° NNE 17:04:55 10° E
Meteor 1-25 Rocket 4.2 16:57:52 10° N 17:03:24 63° ENE 17:08:57 10° SSE
NOSS 2-2 (D) 4.5 16:59:18 10° NNW 17:04:08 49° NE 17:10:49 10° ESE
NOSS 2-2 (E) 4.4 16:59:26 10° NNW 17:04:30 59° NE 17:11:36 10° SE
SMAP 3.1 17:01:04 10° SSE 17:05:39 61° ENE 17:10:16 10° N
Cosmos 2082 Rocket 3.1 17:00:56 10° SSE 17:05:48 30° ESE 17:10:40 10° NE
Meteor PRIRODA 3.9 17:02:42 10° S 17:06:20 73° WSW 17:09:58 10° NNW
Cosmos 1939 Rocket 2.9 17:02:47 10° SSE 17:06:52 67° ENE 17:10:56 10° N
CORIOLIS 4.2 17:03:21 10° SSE 17:08:38 61° ENE 17:14:00 10° N
Cosmos 44 Rocket 4.5 17:07:10 10° NNW 17:11:09 23° NE 17:14:23 13° E
NOAA 12 4.3 17:06:33 10° SSE 17:11:52 80° WSW 17:17:13 10° NNW
CZ-4B DEB 4.2 17:09:37 10° SSE 17:15:02 60° ENE 17:20:26 10° N
Cosmos 2278 4.2 17:10:56 10° NNW 17:16:14 37° NE 17:21:28 10° ESE
Cosmos 1602 3.7 17:13:07 10° N 17:16:57 61° E 17:20:46 10° SSE
USA 307 4.0 17:14:55 10° WNW 17:18:47 32° N 17:21:38 16° NE
Cosmos 1627 Rocket 4.5 17:13:04 10° N 17:19:13 63° ENE 17:25:16 10° SSE
AQUARIUS 4.1 17:15:06 10° SSE 17:19:34 71° ENE 17:24:03 10° N
Cosmos 540 Rocket 3.5 17:15:44 10° S 17:20:43 58° ESE 17:25:45 10° NNE
Cosmos 2034 Rocket 4.2 17:15:59 10° SSW 17:22:09 76° W 17:28:20 10° N
Radarsat 4.5 17:18:51 10° SSE 17:24:02 79° ENE 17:29:15 10° NNW
ARGOS 3.7 17:20:30 10° SE 17:25:18 34° ENE 17:30:07 10° N
Cosmos 2279 Rocket 4.5 17:20:21 10° SSE 17:25:59 38° E 17:31:36 10° NNE
COSMO-SKYMED 1 3.6 17:23:24 14° NE 17:26:16 26° E 17:29:54 10° SSE
COSMOS 2406 3.2 17:20:37 10° SSW 17:26:20 70° ESE 17:32:02 10° NNE
Cosmos 1833 Rocket 2.7 17:22:00 10° SSW 17:27:37 89° ESE 17:33:18 10° NNE
Cosmos 1782 2.9 17:25:23 10° S 17:29:16 54° E 17:33:11 10° NNE
SL-08 R/B 4.5 17:25:09 10° N 17:29:37 43° WNW 17:34:00 10° SW
Meteor 2-21 4.4 17:24:08 10° N 17:30:13 68° ENE 17:36:13 10° SSE
ATLAS 5 CENTAUR R/B 3.1 17:23:03 10° NW 17:31:11 33° NNE 17:33:09 21° ENE
ATLAS CENTAUR R/B 4.0 17:32:25 10° NW 17:34:28 13° NNW 17:36:35 10° N
Cosmos 1633 Rocket 3.6 17:30:49 10° N 17:34:50 35° ENE 17:38:51 10° SE
Cosmos 468 Rocket 4.3 17:30:13 10° SSW 17:35:20 68° WNW 17:40:33 10° NNE
Cosmos 1818 4.2 17:30:21 10° NNW 17:35:23 35° NE 17:38:50 18° E
YAOGAN 1 4.3 17:39:35 15° NNE 17:39:35 15° NNE 17:40:54 10° NNE
Cosmos 1898 Rocket 4.1 17:33:47 10° NNW 17:38:57 59° WSW 17:44:03 10° S
ERBS 4.3 17:37:46 10° NW 17:39:53 16° NNW 17:41:01 14° NNE
CZ-2D R/B 3.1 17:36:31 10° SSE 17:40:20 73° ENE 17:44:10 10° N
GEOS 3 Rocket 4.4 17:37:58 20° E 17:40:44 33° NE 17:45:19 10° NNW
USA 308 3.9 17:37:36 10° WNW 17:41:27 32° N 17:43:13 23° NE
Cosmos 1634 Rocket 4.0 17:36:29 10° S 17:42:48 77° E 17:49:09 10° NNE
COSMOS 2455 2.8 17:37:34 10° SSW 17:43:32 67° ESE 17:48:14 17° NE
PAYLOAD B 4.2 17:39:14 10° SSE 17:44:50 81° ENE 17:50:28 10° NNW
CZ-2C R/B 2.9 17:40:49 10° NNE 17:45:47 44° E 17:50:42 10° S
Cosmos 1500 3.0 17:42:42 10° N 17:46:29 87° E 17:50:12 10° S
CZ-4B R/B 3.1 17:42:04 10° SSE 17:47:23 61° ENE 17:52:39 10° N
Cosmos 2026 Rocket 4.0 17:41:52 10° N 17:48:02 84° W 17:54:06 10° S
Cosmos 1151 Rocket 3.2 17:44:09 10° SSE 17:48:18 48° E 17:51:27 17° NNE
Lacrosse 5 rocket 2.0 17:46:08 10° NW 17:49:43 34° NNE 17:50:35 31° NE
Okean O Rocket 1.8 17:47:09 10° SE 17:51:26 48° ENE 17:55:44 10° N
Cosmos 2208 Rocket 4.4 17:54:25 10° S 17:59:29 43° ESE 18:01:39 29° NE
CZ-4 R/B 4.4 17:56:43 10° SSE 18:00:44 55° ENE 18:04:48 10° N
Cosmos 1666 Rocket 3.4 17:56:18 10° N 18:00:46 77° E 18:05:10 10° SSE
Meteor 1-11 Rocket 4.2 17:57:36 10° N 18:02:43 35° ENE 18:05:45 21° ESE
H-2A R/B 2.1 17:58:21 10° S 18:03:32 78° WSW 18:08:36 10° NNW
Cosmos 2150 Rocket 4.4 17:59:04 10° N 18:03:52 37° ENE 18:04:47 34° E
Cosmos 1470 Rocket 3.9 17:59:43 10° N 18:03:58 41° ENE 18:08:11 10° SSE
USA 267 3.5 18:01:04 22° NE 18:05:24 61° NNW 18:11:49 10° WSW
Cosmos 1328 Rocket 3.6 18:01:30 10° S 18:05:49 53° E 18:07:30 33° NE
Cosmos 1655 Rocket 4.2 17:59:51 10° N 18:06:03 48° ENE 18:12:09 10° SSE
Cosmos 2360 Rocket 3.6 18:03:50 10° N 18:07:10 20° NNE 18:07:10 20° NNE
USA 305 3.7 18:04:21 10° WNW 18:08:16 35° N 18:08:46 33° NNE
Landsat 5 3.6 18:08:42 47° E 18:08:55 47° E 18:12:46 10° S
SKYMED 2 3.4 18:12:00 25° NNE 18:14:33 79° ESE 18:18:53 10° S
Cosmos 2180 Rocket 4.4 18:08:19 10° S 18:14:35 67° E 18:20:49 10° NNE
Cosmos 841 Rocket 3.8 18:09:45 10° SSW 18:14:52 65° WNW 18:18:54 17° NNE
Cosmos 1666 2.7 18:12:13 10° NNW 18:15:57 78° W 18:19:38 10° S
Feng Yun 1-1 Rocket 4.3 18:11:02 10° SSE 18:16:51 59° ENE 18:22:36 10° N
Meteor 2-8 Rocket 4.3 18:12:04 10° S 18:18:10 69° E 18:24:18 10° NNE
ATLAS CENTAUR R/B 2.9 18:10:40 10° WSW 18:19:08 56° NW 18:20:44 35° NNE
Cosmos 1125 Rocket 3.6 18:16:58 10° NNW 18:22:04 48° ENE 18:22:14 47° ENE
Cosmos 2322 Rocket 2.7 18:23:04 10° NNW 18:27:49 38° NE 18:27:49 38° NE
Cosmos 1980 Rocket 3.2 18:28:56 10° NW 18:34:21 47° WSW 18:39:42 10° S
SL-08 RB Rocket 3.6 18:30:02 10° SSE 18:34:41 89° ENE 18:39:19 10° NNW
Cosmos 1812 3.8 18:32:07 10° SSW 18:35:47 43° WNW 18:37:47 23° NNW
ATLAS 2AS CENTAUR R/B 4.2 18:30:06 10° NW 18:35:48 22° N 18:37:26 21° NNE
ISS -2.4 18:35:10 10° WNW 18:37:58 39° WSW 18:37:58 39° WSW
USA 234 4.4 18:33:35 10° SSE 18:39:41 41° SW 18:45:49 10° WNW
USA 306 4.0 18:36:29 10° NW 18:39:35 35° NNW 18:39:35 35° NNW
CZ-4C R/B 3.2 18:38:03 10° NW 18:45:17 70° SW 18:53:42 10° SSE
SL-16 R/B 2.1 18:40:36 10° NNW 18:46:11 67° NE 18:46:11 67° NE
Cosmos 2082 Rocket 3.0 18:44:10 10° SW 18:49:39 48° WNW 18:52:35 26° N
Cosmos 44 Rocket 3.3 18:48:18 10° NW 18:53:09 77° WSW 18:53:09 77° WSW
Cosmos 2333 Rocket 4.1 18:52:39 10° N 18:54:27 17° N 18:54:27 17° N
USA 307 4.5 18:55:16 10° NW 18:57:40 29° NW 18:57:40 29° NW
COSMO-SKYMED 1 4.1 19:00:37 24° NNW 19:02:28 34° WNW 19:06:24 10° SW
ARGOS 4.4 19:00:27 10° SSW 19:05:29 39° W 19:10:33 10° NNW
Cosmos 2298 Rocket 4.3 19:03:39 10° NNW 19:08:56 64° WSW 19:09:28 60° SW
Cosmos 2266 Rocket 4.5 19:08:50 10° NNW 19:15:06 61° W 19:21:23 10° S
GEOS 3 Rocket 4.0 19:19:06 61° W 19:19:06 61° W 19:23:43 10° NW
Cosmos 1818 4.2 19:13:52 10° NW 19:19:10 51° WSW 19:19:33 49° SW
Cosmos 2219 Rocket 4.4 19:17:15 10° NNW 19:18:11 14° N 19:18:11 14° N
CZ-2C R/B 4.4 19:22:06 13° N 19:25:53 28° WNW 19:30:14 10° WSW
Okean O Rocket 4.2 19:24:48 10° SW 19:28:02 20° W 19:31:18 10° NW
Lacrosse 5 rocket 3.9 19:25:04 10° WNW 19:26:12 18° WNW 19:26:12 18° WNW
COSMOS 2455 4.3 19:24:43 10° W 19:29:58 30° NW 19:31:24 27° NNW
BREEZE-M DEB (TANK) 4.2 19:24:08 10° SW 19:44:57 79° S 19:44:57 79° S
USA 267 4.2 19:48:24 38° NNW 19:48:24 38° NNW 19:53:42 10° WNW
Cosmos 2360 Rocket 4.1 19:47:08 10° NNW 19:48:57 21° NNW 19:48:57 21° NNW
Cosmos 2322 Rocket 4.2 20:07:14 10° NW 20:09:40 24° WNW 20:09:40 24° WNW
